This is the latest recevied weather packets stored in our database for station/object KD2DXJ. If no packets are shown the sender has not sent any weather packets the latest 10 day(s).
| Time | Temp. | Humidity | Pressure | Rain* | Wind** | Luminosity | Snow |
|---|---|---|---|---|---|---|---|
| 1777760222 | 5.56° C | 81% | 1012.7 hPa | 0 mm | - | 28 W/m² | - |
| 1777759919 | 6.11° C | 79% | 1012.9 hPa | 0 mm | - | 30 W/m² | - |
| 1777759615 | 6.67° C | 76% | 1012.8 hPa | 0 mm | - | 32 W/m² | - |
| 1777759311 | 6.67° C | 73% | 1012.9 hPa | 0 mm | - | 42 W/m² | - |
| 1777759009 | 6.67° C | 75% | 1012.7 hPa | 0 mm | - | 44 W/m² | - |
| 1777758705 | 6.67° C | 74% | 1012.8 hPa | 0 mm | - | 50 W/m² | - |
| 1777758403 | 6.67° C | 74% | 1012.6 hPa | 0 mm | - | 57 W/m² | - |
| 1777758100 | 6.67° C | 73% | 1012.6 hPa | 0 mm | - | 55 W/m² | - |
| 1777757797 | 6.67° C | 74% | 1012.6 hPa | 0 mm | - | 52 W/m² | - |
| 1777757494 | 6.67° C | 76% | 1012.4 hPa | 0 mm | - | 47 W/m² | - |
| 1777757193 | 6.67° C | 72% | 1012.3 hPa | 0 mm | - | 58 W/m² | - |
| 1777756891 | 6.67° C | 75% | 1012.2 hPa | 0 mm | - | 65 W/m² | - |
| 1777756586 | 6.67° C | 73% | 1012.3 hPa | 0 mm | - | 72 W/m² | - |
| 1777756284 | 6.67° C | 73% | 1012.2 hPa | 0 mm | - | 82 W/m² | - |
| 1777755981 | 6.67° C | 74% | 1012 hPa | 0 mm | - | 92 W/m² | - |
| 1777755678 | 6.67° C | 75% | 1012.1 hPa | 0 mm | - | 97 W/m² | - |
| 1777755374 | 6.67° C | 75% | 1012.1 hPa | 0 mm | - | 104 W/m² | - |
| 1777755071 | 7.22° C | 76% | 1012 hPa | 0 mm | - | 125 W/m² | - |
| 1777754768 | 6.67° C | 76% | 1012.3 hPa | 0 mm | - | 148 W/m² | - |
| 1777754466 | 6.67° C | 77% | 1012.1 hPa | 0 mm | - | 132 W/m² | - |
| 1777754163 | 6.11° C | 80% | 1012.1 hPa | 1.27 mm | - | 113 W/m² | - |
| 1777753860 | 6.11° C | 80% | 1011.9 hPa | 1.27 mm | - | 89 W/m² | - |
| 1777753555 | 6.11° C | 81% | 1012.1 hPa | 0 mm | - | 76 W/m² | - |
| 1777753254 | 6.11° C | 81% | 1012 hPa | 0 mm | - | 49 W/m² | - |
| 1777752950 | 5.56° C | 79% | 1011.9 hPa | 0 mm | - | 41 W/m² | - |
* Rain latest hour (hover to see other rain measurements)
** Current wind speed in m/s (hover to see current wind gust speed)